Kezdőlap
METAR-TAF:

METAR-TAF

Repülőterek :

Southern Wisconsin Regional Airport

Janesville, Wisconsin, Amerikai Egyesült Államok

földrajzi szélesség: 42-37N, földrajzi hosszúság: 089-02W, magasság: 246 m

Jelenlegi meteorológiai megfigyelések

A jelentés 12 perccel ezelõtt készült, 23:45 UTC
Dél-délnyugati szél 7 kt
Hőmérséklet 6°C
Páratartalom 61%
Légköri nyomás 1017 hPa
Látótávolság: 16.1 km
Szakadozott felhőzet 25000 lábon

METAR: KJVL 222345Z 20007KT 10SM BKN250 06/M01 A3003

Idő: 17:57 (23:57 UTC)


TAF: hiányzik

Meteorológiai megfigyelések és előrejelzések több, mint 4000 repülőtéren (METAR és TAF jelentéseket).

A térképen piros és sárga pontok jelzik az elérhető meteorológiai állomásokat.

Mozgassa az egeret a pont fölött, hogy megjelenjen az állomás neve.

Azután kattintson az időjárási megfigyelések és előrejelzések megtekintéséhez.

A térkép megváltoztatása: kattintson a fekete keresztel jelölt zöld gombra ráközelítéshez, a vonallal jelölt zöld gombra távolításhoz, vagy a zöld nyilakra a szomszédos térképek eléréséhez.


METAR-TAF: